Regional Weather Roundup
Issued by NWS Sioux Falls, SD

Home | Current Version | Previous Version | Text Only | Print | Product List | Glossary On
Versions: 1 2 3 4 5 6 7 8 9 10 11 12 13 14 15 16 17 18 19 20 21 22 23 24 25 26 27 28 29 30 31 32 33 34 35 36 37 38 39 40 41 42 43 44 45 46 47 48 49 50
000
ASUS43 KFSD 231010
RWRFSD

WEATHER ROUNDUP FOR SE SOUTH DAKOTA/SW MINNESOTA/NW IOWA
NATIONAL WEATHER SERVICE SIOUX FALLS SD
500 AM CDT TUE SEP 23 2014

NOTE: "FAIR" INDICATES FEW OR NO CLOUDS BELOW 12,000 FEET WITH NO
SIGNIFICANT WEATHER AND OR OBSTRUCTIONS TO VISIBILITY.


SDZ038>040-050-052>070-231100-
SOUTHEAST SOUTH DAKOTA

CITY           SKY/WX    TMP DP  RH WIND       PRES   REMARKS
CHAMBERLAIN    CLOUDY    60  54  79 S12G17    30.00S
HURON          CLOUDY    62  52  69 S8        30.03S
MADISON        CLOUDY    57  52  82 S9        30.10R
MITCHELL       CLOUDY    61  54  77 S8        30.06S
SIOUX FALLS    CLOUDY    60  50  69 S8        30.11S
WINNER         CLOUDY    61  53  75 S17G30    29.97S
YANKTON        CLOUDY    59  54  82 S6        30.10S
$$

MNZ071-072-080-081-089-090-097-098-231100-
SOUTHWEST MINNESOTA

CITY           SKY/WX    TMP DP  RH WIND       PRES   REMARKS
FAIRMONT       CLEAR     45  39  81 S7        30.19R
JACKSON        PTCLDY    52  46  82 S7        30.18R
LUVERNE        MOCLDY    52  46  82 CALM      30.14S
MARSHALL       CLEAR     52  45  76 S7        30.10F
MONTEVIDEO     CLEAR     52  48  87 S7        30.12S
PIPESTONE      CLOUDY    54  48  82 S6        30.12S
REDWOOD FALLS  CLEAR     49  46  90 SE6       30.15R
TRACY          PTCLDY    54  48  81 S10       30.13S
WINDOM         CLEAR     54  48  82 S7        30.16S
WORTHINGTON    MOCLDY    54  46  76 S6        30.16S
$$

IAZ001>003-012>014-020>022-031-032-NEZ013-014-SDZ071-231100-
NORTHWEST IOWA

CITY           SKY/WX    TMP DP  RH WIND       PRES   REMARKS
CHEROKEE       PTCLDY    53  51  94 S6        30.16F
DENISON        CLOUDY    57  52  82 SE8       30.16R
ESTHERVILLE    PTCLDY    46  44  93 S6        30.18R
LE MARS          N/A     57  52  82 SE5       30.15R
ORANGE CITY    MOCLDY    55  48  76 SE5       30.15R
SHELDON        PTCLDY    54  50  87 SE7       30.14S
SIOUX CITY     CLOUDY    58  54  86 SE6       30.13F
SPENCER        PTCLDY    50  47  89 S5        30.17S
$$

ABBREVIATIONS USED IN REMARKS
   TC - TEMPERATURE IN CELSIUS
  WCI - WIND CHILL INDEX
   HX - HEAT INDEX
  VSB - VISIBILITY




USA.gov is the U.S. government's official web portal to all federal, state and local government web resources and services.